This demonstration page uses our WeatherBlox Daily Observations layout. Learn more.

Left ArrowRight Arrow

34.74481, -87.66753

Hourly Observations for December 14, 2019

Temp ( °F °C ) Dew Point ( °F °C ) Humidity (%) Winds ( mph kmh ) Pressure ( in mb ) Visibility ( mi km ) Precip ( " mm )
12:50 am 00:50 Mostly Cloudy 46 8 45 7 93 93 WNW 7 11 29.78 1009 10 16 0.00 0.00
12:53 am 00:53 Mostly Cloudy 47 8.3 44 6.7 90 90 WNW 7 11 29.77 1008 10 16 0.00 0.00
2:09 am 02:09 Cloudy 46 7.8 43 6.1 89 89 WNW 10 17 29.80 1009 10 16 0.00 0.00
2:53 am 02:53 Cloudy 46 7.8 43 6.1 89 89 W 8 13 29.78 1008 10 16 0.00 0.00
3:53 am 03:53 Cloudy 46 7.8 42 5.6 86 86 WNW 7 11 29.78 1008 10 16 0.00 0.00
4:53 am 04:53 Mostly Cloudy 43 6.1 39 3.9 86 86 W 5 7 29.76 1008 10 16 0.00 0.00
5:53 am 05:53 Cloudy 43 6.1 38 3.3 82 82 NW 7 11 29.79 1009 10 16 0.00 0.00
6:53 am 06:53 Cloudy 43 6.1 40 4.4 89 89 W 5 7 29.81 1009 10 16 0.00 0.00
7:53 am 07:53 Mostly Cloudy 44 6.7 39 3.9 83 83 W 8 13 29.82 1010 10 16 0.00 0.00
8:12 am 08:12 Mostly Cloudy 44 6.7 39 3.9 83 83 WSW 6 9 29.83 1010 10 16 0.00 0.00
8:32 am 08:32 Mostly Cloudy 44 6.7 39 3.9 83 83 WSW 10 17 29.84 1011 10 16 0.00 0.00
8:53 am 08:53 Mostly Cloudy 44 6.7 38 3.3 79 79 WSW 8 13 29.83 1010 10 16 0.00 0.00
9:21 am 09:21 Mostly Cloudy 45 7.2 38 3.3 77 77 SW 9 15 29.84 1011 10 16 0.00 0.00
9:30 am 09:30 Mostly Cloudy 45 7.2 38 3.3 77 77 WSW 7 11 29.84 1011 10 16 0.00 0.00
10:33 am 10:33 Partly Cloudy 49 9.4 40 4.4 71 71 W 8 13 29.85 1011 10 16 0.00 0.00
10:53 am 10:53 Mostly Sunny 49 9.4 39 3.9 69 69 W 9 15 29.83 1010 10 16 0.00 0.00
12:53 pm 12:53 Mostly Cloudy 52 11.1 41 5 66 66 W 12 19 29.81 1010 10 16 0.00 0.00
1:07 pm 13:07 Cloudy 53 11.7 42 5.6 66 66 W 8 13 29.82 1010 10 16 0.00 0.00
1:17 pm 13:17 Cloudy 53 11.7 42 5.6 66 66 W 9 15 29.82 1010 10 16 0.00 0.00
1:53 pm 13:53 Cloudy 52 11.1 42 5.6 69 69 W 5 7 29.81 1010 10 16 0.00 0.00
2:08 pm 14:08 Cloudy 54 12.2 43 6.1 67 67 SSW 6 9 29.81 1010 10 16 0.00 0.00
2:38 pm 14:38 Cloudy 52 11.1 43 6.1 72 72 WSW 8 13 29.83 1010 10 16 0.00 0.00
2:53 pm 14:53 Cloudy 52 11.1 43 6.1 72 72 WSW 6 9 29.82 1010 10 16 0.00 0.00
3:53 pm 15:53 Cloudy 52 11.1 44 6.7 75 75 WSW 9 15 29.85 1011 10 16 0.00 0.00
4:42 pm 16:42 Cloudy 51 10.6 45 7.2 80 80 W 8 13 29.88 1012 10 16 0.00 0.00
4:53 pm 16:53 Cloudy 51 10.6 44 6.7 77 77 W 6 9 29.87 1011 10 16 0.00 0.00
5:19 pm 17:19 Cloudy 51 10.6 45 7.2 80 80 WSW 7 11 29.89 1012 10 16 0.00 0.00
5:50 pm 17:50 Cloudy 52 11 45 7 77 77 W 5 7 29.89 1012 10 16 0.00 0.00
5:53 pm 17:53 Cloudy 51 10.6 45 7.2 80 80 W 3 6 29.88 1012 10 16 0.00 0.00
6:12 pm 18:12 Cloudy 50 10 45 7.2 83 83 W 3 6 29.90 1012 10 16 0.00 0.00
6:53 pm 18:53 Cloudy 50 10 45 7.2 83 83 W 5 7 29.91 1013 10 16 0.00 0.00
7:32 pm 19:32 Cloudy 50 10 45 7.2 83 83 W 5 7 29.92 1013 10 16 0.00 0.00
7:41 pm 19:41 Cloudy 50 10 45 7.2 83 83 WNW 3 6 29.92 1013 10 16 0.00 0.00
7:53 pm 19:53 Cloudy 50 10 45 7.2 83 83 WNW 8 13 29.91 1013 10 16 0.00 0.00
8:53 pm 20:53 Cloudy 50 10 42 5.6 74 74 NW 5 7 29.93 1014 10 16 0.00 0.00
9:53 pm 21:53 Mostly Clear 47 8.3 41 5 80 80 Calm 29.94 1014 10 16 0.00 0.00
10:53 pm 22:53 Clear 46 7.8 42 5.6 86 86 Calm 29.95 1014 10 16 0.00 0.00
11:53 pm 23:53 Mostly Cloudy 46 7.8 42 5.6 86 86 Calm 29.96 1015 9 14 0.00 0.00

Powered by AerisWeather